Regional Weather Roundup
Issued by NWS

Home | Current Version | Previous Version | Text Only | Print | Product List | Glossary Off
Versions: 1 2 3 4 5 6 7 8 9 10 11 12 13 14 15 16 17 18 19 20 21 22 23 24 25 26 27 28 29 30 31 32 33 34 35 36 37 38 39 40 41 42 43 44 45 46 47 48 49 50

914
ASUS45 KTFX 232210
RWRMT
MONTANA REGIONAL WEATHER ROUNDUP
NATIONAL WEATHER SERVICE GREAT FALLS MT
400 PM MDT SAT JUL 23 2016

NOTE: "FAIR" INDICATES FEW OR NO CLOUDS BELOW 12000 FEET WITH NO
SIGNIFICANT WEATHER AND/OR OBSTRUCTIONS TO VISIBILITY.

MTZ001>007-043-232300-
WEST OF THE DIVIDE

CITY           SKY/WX    TMP DP  RH WIND       PRES   REMARKS
KALISPELL      PTSUNNY   75  47  36 SE15      30.09F
MISSOULA       MOSUNNY   77  40  26 CALM      30.12F
BUTTE          CLOUDY    76  34  21 NW15G24   30.16F
MULLAN PASS    PTSUNNY   60  43  53 VRB5      30.28S
ANACONDA         N/A     72  41  33 N8        30.15F
DEER LODGE       N/A     72  39  30 N7        30.18S
EUREKA           N/A     79  45  29 SW10G17   30.09S
HAMILTON         N/A     73  45  35 N8        30.13F
LIBBY            N/A     72  43  35 W6        30.12F
PLAINS           N/A     81  44  26 W12       30.10F
RONAN            N/A     77  45  32 SW7       30.16S
$$

MTZ008-052>055-232300-
SOUTHWEST MONTANA

CITY           SKY/WX    TMP DP  RH WIND       PRES   REMARKS
BOZEMAN        CLOUDY    77  37  23 N9G16     30.11F
DILLON         CLOUDY    79  43  27 N10       30.10F
W YELLOWSTONE  MOSUNNY   73  32  21 SW18G28   30.22F
ENNIS          SUNNY     79  28  15 NE10G16   30.16F
THREE FORKS      N/A     81  81 100 N9        30.07F HX  92
TWIN BRIDGES     N/A     79  30  16 SW5       30.09F
$$

MTZ009-010-012-014-046-048-049-054-232300-
EAST SLOPES AND CENTRAL MONTANA

CITY           SKY/WX    TMP DP  RH WIND       PRES   REMARKS
CUT BANK       MOSUNNY   77  38  24 W13G26    30.06S
GREAT FALLS    MOSUNNY   80  39  23 SW14G22   30.05F
MALMSTROM AFB  MOSUNNY   77  41  27 SW13G21   30.05F
HELENA         MOSUNNY   81  38  21 SW6       30.07F
CHOTEAU          N/A     77  36  22 NW8G15    30.08S
CONRAD           N/A     79  42  26 SW10      30.08F
$$

MTZ011-013-016-021-045-047-050-051-232300-
NORTH CENTRAL MONTANA

CITY           SKY/WX    TMP DP  RH WIND       PRES   REMARKS
HAVRE          MOSUNNY   79  48  33 N13G22    29.98F
LEWISTOWN      SUNNY     77  46  33 N10G22    30.08F
N BAR RANCH      N/A     75  45  33 NW17G24   30.11S
CHINOOK          N/A     79  48  34 W14G20    29.97S
$$

MTZ017>020-022>027-061-062-232300-
NORTHEAST MONTANA

CITY           SKY/WX    TMP DP  RH WIND       PRES   REMARKS
GLASGOW        MOSUNNY   80  51  36 NW23G38   29.91R
JORDAN           N/A     83  45  26 NW20G29   29.96R
SIDNEY         SUNNY     84  49  29 NW25G33   29.85R
WOLF POINT     MOSUNNY   81  52  36 NW23G32   29.89R
PLENTYWOOD       N/A     73  55  53 W20G31    29.85R
POPLAR           N/A     79  52  38 NW21G32   29.88R
SCOBEY           N/A     77  55  46 W20       29.90R
$$

MTZ028>42-056>058-232300-
SOUTHCENTRAL AND SOUTHEAST MONTANA

CITY           SKY/WX    TMP DP  RH WIND       PRES   REMARKS
BAKER          SUNNY     83  42  23 W23G36    29.95S
BILLINGS       MOSUNNY   85  35  16 N13G22    30.02S
LIVINGSTON     CLOUDY    83  33  16 W15       30.07F
MILES CITY     MOSUNNY   87  40  19 NW24G30   29.95R
EKALAKA          N/A     82  37  20 W16       29.98R
FORSYTH          N/A     82  43  24 W15G22    29.96F
LAUREL           N/A     86  37  17 NW5       30.01F
ROUNDUP          N/A     80  42  25 CALM      29.95F
$$

REGIONAL REPORTS...DAKOTAS

CITY           SKY/WX    TMP DP  RH WIND       PRES   REMARKS
WILLISTON      SUNNY     83  50  31 W22G35    29.83R
MINOT          SUNNY     85  49  28 W22       29.76S
DICKINSON      SUNNY     81  44  27 W22G29    29.86F
BEACH            N/A     82  41  23 NW28G33   29.93S
CROSBY         PTSUNNY   73  57  56 W18G28    29.82S
WATFORD CITY     N/A    N/A N/A N/A MISG        N/A
BISMARCK       MOSUNNY   83  63  50 NW13G21   29.81S
GRAND FORKS    TSTM      70  67  90 NE7       29.74R
FARGO          PTSUNNY   82  71  69 S13       29.69F
BUFFALO SD       N/A     88  36  15 NW25G32   29.88S
RAPID CITY     SUNNY     89  42  19 N17       29.94S
$$

REGIONAL REPORTS...WYOMING/IDAHO/WASHINGTON

CITY           SKY/WX    TMP DP  RH WIND       PRES   REMARKS
GILLETTE       SUNNY     85  39  19 NW9G18    30.04F
SHERIDAN       SUNNY     85  35  16 NW7       30.03F
BUFFALO WY     SUNNY     83  41  22 N9        30.10S
CODY           SUNNY     81  41  24 NE9G17    30.07F
YELLOWSTONE LA   N/A     70  27  20 VRB6      30.31F
IDAHO FALLS    SUNNY     82  35  18 S16G24    30.12F
SALMON         SUNNY     81  41  24 N7        30.04F
BOISE          SUNNY     82  24  12 W15       30.10F
SPOKANE        MOSUNNY   75  40  28 W5        30.15F
$$

REGIONAL REPORTS...ALBERTA

CITY           SKY/WX    TMP DP  RH WIND       PRES   REMARKS
EDMONTON       PTSUNNY   72  50  46 NW13      29.92S
CALGARY        PTSUNNY   73  50  43 SE16      29.96F
LETHBRIDGE     MOSUNNY   79  45  29 SW17G26   29.99S
MEDICINE HAT   PTSUNNY   79  50  36 SW9       29.96F
WATERTON GATE    N/A     72  43  35 SW18G29     N/A
CARDSTON         N/A     75  43  31 W12G20      N/A
MILK RIVER       N/A     77  43  29 W13G18      N/A
ONEFOUR          N/A     77  43  29 NW13        N/A
$$

REGIONAL REPORTS...SASKATCHEWAN

CITY           SKY/WX    TMP DP  RH WIND       PRES   REMARKS
SWIFT CURRENT  MOSUNNY   70  57  64 NW18G26   29.92R
REGINA         PTSUNNY   68  63  83 NW22G28   29.78R
SASKATOON      MOSUNNY   75  55  50 NW22G31   29.79R
CYPRESS HILLS    N/A     66  48  52 NW8         N/A
VAL MARIE        N/A     73  50  43 N20G28      N/A
ROCKGLEN         N/A     70  54  56 NW21G30     N/A
ASSINIBOIA       N/A     66  54  63 NW6         N/A
$$




USA.gov is the U.S. government's official web portal to all federal, state and local government web resources and services.